www.pogodaiklimat.ru

Погода и климат >> Архив погоды >> Китай >> Шаньси >> Цзесю


ПОГОДА в Цзесю

  • Прогноз погоды в Цзесю
  • Монитор погоды в Цзесю

АРХИВ ПОГОДЫ в Цзесю

Время (UTC), дата Ветер
(напр.,м/с)
 
Видим.   Явления Облачность Т
(С)
Тd
(С)
f
(%)
Тe
(С)
Тes
(С)
Комфортность P
(гПа)
Po
(гПа)
Тmin
(С)
Tmax
(С)
R
(мм)
R24
(мм)
S
(см)
00 16.09 В 1 600 м туман 9/9
[]
+13.3 +13.1 99 +13 +14 1020.1 934.2
03 16.09 СЗ 2 4400 м дымка 8/8
[]
+17.9 +17.7 99 +18 +21 1018.7 933.4
06 16.09 В 2 9000 м 6/6
[]
+24.4 +15.3 57 +27 +32 жарко 1015.2 931.9 +10.8
09 16.09 Ю 1 10 км 8/8
[]
+24.1 +13.6 52 +26 +27 жарко 1014.2 930.9
12 16.09 Ю 2 8000 м 9/9
[]
+20.8 +16.8 78 +25 +25 комфорт 1015.2 931.0
18 16.09 Ю 1 8000 м ?/? +17.0 +16.5 97 +18 +18 1017.0 931.6 +25.1
21 16.09 СЗ 1 7000 м н/о +15.1 +14.9 99 +16 +16 1018.3 932.2
00 17.09 ЮЗ 1 6000 м дымка 10/10
[]
+16.2 +16.0 99 +17 +17 1019.9 934.0
03 17.09 З 1 6000 м дымка 10/10
[]
+19.2 +17.5 90 +22 +22 комфорт 1020.8 935.7
06 17.09 ЮЗ 2 8000 м 9/9
[]
+22.8 +16.6 68 +27 +29 душно 1019.2 935.2 +14.9
09 17.09 ЮЗ 4 10 км 9/9
[]
+23.0 +12.9 53 +26 +26 жарко 1019.1 935.1
12 17.09 ЮЗ 3 9000 м 5/5
[]
+19.1 +14.4 74 +21 +21 комфорт 1021.2 936.0
18 17.09 С 1 6000 м дымка ?/? +14.6 +14.0 96 +15 +15 1023.4 936.7 +24.1
21 17.09 штиль 0 н/о дымка н/о +12.7 +12.5 99 +12 +12 1024.6 937.3
00 18.09 С 2 4900 м дымка ясно +13.9 +13.7 99 +13 +15 1027.2 940.0
03 18.09 СВ 3 7000 м ясно +20.9 +15.2 70 +24 +34 комфорт 1026.0 940.9
06 18.09 С 2 13 км ясно +25.4 +11.9 43 +27 +39 жарко 1022.7 939.1 +12.0
09 18.09 В 1 13 км 9/9
[]
+25.0 +10.5 40 +26 +26 жарко 1021.8 938.2
12 18.09 Ю 1 10 км 9/9
[]
+19.9 +13.8 68 +23 +23 комфорт 1022.8 937.7
18 18.09 ЮВ 2 9000 м ?/? +17.2 +14.1 82 +18 +18 1022.1 936.3 +25.7
21 18.09 Ю 2 8000 м н/о +16.3 +15.5 95 +16 +16 1022.7 936.6
00 19.09 Ю 3 8000 м слаб. дождь 10/10
[]
+15.7 +14.7 94 +15 +15 1024.1 937.7 0.0
03 19.09 С 2 9000 м слаб. дождь 10/10
[]
+15.0 +14.8 99 +15 +15 1025.3 938.6
06 19.09 С 2 9000 м слаб. дождь 10/10
[]
+15.4 +15.2 99 +15 +15 1023.3 936.9 +14.0 2
09 19.09 ЮВ 2 8000 м слаб. дождь 10/10
[]
+14.9 +14.7 99 +15 +15 1022.6 936.1
12 19.09 Ю 1 7000 м дымка {дождь} 10/10
[]
+14.3 +14.1 99 +15 +15 1022.6 935.9 0.1
18 19.09 Ю 3 7000 м ?/? +14.6 +14.3 98 +14 +14 1020.8 934.4 +17.3
21 19.09 Ю 3 8000 м н/о +13.9 +13.3 96 +13 +13 1019.5 933.0
00 20.09 Ю 4 8000 м 10/10
[]
+15.2 +13.6 90 +14 +14 1020.3 934.1
03 20.09 Ю 3 11 км 9/9
[]
+19.8 +13.5 67 +22 +23 комфорт 1019.3 934.5
06 20.09 З 3 11 км 8/8 600 м
[]
+22.0 +12.8 56 +25 +27 комфорт 1017.2 933.1 +13.5
09 20.09 Ю 1 9000 м слаб. дождь 9/9 600 м
[]
+16.3 +14.8 91 +17 +17 1019.7 933.8
12 20.09 ЮВ 2 7000 м дымка {дождь} 3/3 600 м
[]
+14.9 +14.7 99 +15 +15 1021.2 934.8 0.0
18 20.09 Ю 1 300 м туман ?/? +10.9 +10.7 99 +10 +10 1022.2 934.6 +22.9
21 20.09 В 1 500 м туман ?/? +9.2 +9.1 99 +8 +8 1023.9 935.6
00 21.09 штиль 0 4700 м дымка ясно +11.1 +10.9 99 +10 +13 1025.6 937.7
03 21.09 СВ 3 9000 м ясно +20.4 +12.6 61 +23 +32 комфорт 1024.1 939.0
06 21.09 С 4 13 км 3/3 600 м
[]
+23.5 +9.8 42 +25 +30 комфорт 1021.6 937.6 +8.2
09 21.09 В 1 12 км 5/5 600 м
[]
+22.9 +10.0 44 +25 +26 комфорт 1021.7 937.5
12 21.09 штиль 0 10 км ясно +18.1 +14.0 77 +18 +18 1023.2 937.6
18 21.09 штиль 0 8000 м ?/? +11.4 +11.2 99 +11 +11 1024.1 936.4 +24.9
21 21.09 З 1 7000 м н/о +9.8 +9.7 99 +9 +9 1024.8 936.6
00 22.09 З 1 7000 м ясно +11.7 +11.5 99 +11 +13 1027.0 939.2
03 22.09 СВ 2 8000 м ясно +19.9 +12.4 62 +22 +34 комфорт 1025.6 940.3
06 22.09 СВ 2 13 км ясно +25.1 +8.1 34 +25 +37 комфорт 1022.2 938.6 +9.3
09 22.09 штиль 0 14 км ясно +26.4 +5.9 27 +26 +28 жарко 1021.0 937.8
12 22.09 Ю 3 10 км ясно +18.8 +7.2 47 +19 +19 1022.5 937.1
18 22.09 Ю 1 9000 м ?/? +12.4 +11.8 96 +12 +12 1022.6 935.4 +27.1
21 22.09 С 1 7000 м ?/? +10.0 +9.8 99 +9 +9 1022.7 934.8

 

Местоположение метеостанции Цзесю (Шаньси, Китай): широта 37.03 долгота 111.91 высота над уровнем моря 745 м.

В архиве по умолчанию представлена погода в Цзесю за последнюю неделю. Архивные данные за месяц целиком и за предыдущие месяцы, начиная с января 2011 года, Вы можете получить, выбрав интересующий диапазон дат из раскрывающегося списка и нажав кнопку "Ввод!".


*Определитесь, кто Вы:
робот инопланетянин человек

Внимание! Время в таблицах - всемирное. Для получения местного времени необходимо прибавить поправку, которая равна 8 ч.

Смотрите также архив погоды в соседних городах и на ближайших метеорологических станциях:

Погода в Лиши (Шаньси, Китай) (89 км)
Погода в Юйшэ (Шаньси, Китай) (95 км)
Погода в Тайюанье (Шаньси, Китай) (101 км)
Погода в Яньчэне (Цзянсу, Китай) (178 км)
Погода в Юаньпине (Шаньси, Китай) (203 км)
Погода в Яньане (Шэньси, Китай) (220 км)
Погода в Синтае (Хэбэй, Китай) (230 км)
Погода в Юньчэне (Шаньси, Китай) (233 км)
Погода в Юйлине (Гуанси-Чжуанский автономный район, Китай) (236 км)
Погода в Шицзячжуане (Хэбэй, Китай) (247 км)

Пояснения к столбцам:

Ветер - указаны скорость ветра в м/с - средняя за 10 мин, порывы в срок и между сроками (в фигурных скобках) и направление, откуда дует ветер: С - северный, СВ - северо-восточный, В - восточный, ЮВ - юго-восточный, Ю - южный, ЮЗ - юго-западный, З - западный, СЗ - северо-западный.
Видимость - горизонтальная дальность видимости в метрах или километрах. При видимости от 1 до 10 км при отсутствии осадков обычно наблюдается дымка, при ухудшении видимости до 1 км и менее - туман. В сухую погоду видимость может ухудшаться дымом, пылью или мглою.
Явления - указаны атмосферные явления, наблюдавшиеся в срок или в последний час перед сроком; фигурными скобками обозначены явления, наблюдавшиеся между сроками (за 1-3 часа до срока); квадратными скобками обозначены град или гололедные отложения с указанием их диаметра в мм.
Облачность - указаны через наклонную черту общая и нижняя облачность в баллах и высота нижней границы облаков в метрах; квадратными скобками обозначены формы облаков: Ci - перистые, Cs - перисто-слоистые, Cc - перисто-кучевые, Ac - высококучевые, As - высокослоистые, Sc - слоисто-кучевые, Ns - слоисто-дождевые, Cu - кучевые, Cb - кучево-дождевые. Подробнее классификацию облаков см. в Атласе облаков (PDF).
T - Температура воздуха - температура, измеренная на высоте 2 м над землей.
Td - Температура точки росы - температура, при понижении до которой содержащийся в воздухе водяной пар достигнет насыщения.
f - Относительная влажность воздуха - влажноcть воздуха, измеренная на высоте 2 м над землей.
Te - Эффективная температура - температура, которую ощущает одетый по сезону человек в тени. Характеристика душности погоды. При расчете учитывается влияние влажности воздуха и скорости ветра на теплоощущения человека.
Tes - Эффективная температура на солнце - температура, которую ощущает человек, с поправкой на солнечный нагрев. Характеристика знойности погоды. Зависит от высоты солнца над горизонтом, облачности и скорости ветра. Ночью, в пасмурную погоду, а также при ветре 12 м/с и более поправка равна нулю.
P - Атмосферное давление - приведенное к уровню моря атмосферное давление.
Po - Атмосферное давление - измеренное на уровне метеостанции атмосферное давление.
Tmin - Минимальная температура - минимум температуры воздуха на высоте 2 м над землей.
Tmax - Максимальная температура - максимум температуры воздуха на высоте 2 м над землей.
R - Количество осадков - Количество выпавших осадков за период времени, мм. При наведении курсора мыши на число - период времени, за который выпало указанное количество осадков.
R24 - Количество осадков - Количество выпавших осадков за 24 часа, мм.
S - Снежный покров - Высота снежного покрова, см. При наведении курсора мыши на число - состояние снежного покрова и степень покрытия местности в баллах.